Location: Watson Lake
(60.1170°N, 128.8000°W)
Time: 00:51:44
(UTC-08:00)

Daily predictions for brighter satellites

Satellite Brightness Start Highest point End
(mag) Time Altitude Azimuth Time Altitude Azimuth Time Altitude Azimuth
Cosmos 2082 Rocket 3.8 00:08:57 10° NW 00:11:56 31° NNW 00:11:56 31° NNW
Cosmos 2263 Rocket 4.0 01:08:58 27° NNE 01:08:58 27° NNE 01:11:29 10° NE
CZ-2C R/B 4.4 01:04:39 10° NNE 01:07:05 27° N 01:07:05 27° N
Cosmos 2297 Rocket 3.9 01:10:56 29° N 01:10:56 29° N 01:15:48 10° NE
SL-16 R/B 3.6 01:19:43 41° NE 01:19:43 41° NE 01:24:51 10° NNW
Cosmos 2227 Rocket 4.0 01:30:23 25° NNW 01:31:50 28° N 01:36:42 10° ENE
Cosmos 2278 Rocket 4.0 01:42:21 25° ENE 01:42:21 25° ENE 01:44:52 10° NE
Cosmos 2344 3.9 01:58:34 69° ESE 01:58:34 69° ESE 02:07:39 10° ENE
Cosmos 1844 Rocket 3.7 02:37:30 44° NNE 02:37:30 44° NNE 02:41:30 10° NE
Lacrosse 4 Rocket 4.0 02:50:43 18° NE 02:50:43 18° NE 02:51:51 10° NE
Cosmos 2263 Rocket 3.5 02:50:38 33° NNW 02:50:40 33° NNW 02:55:45 10° NE
Resurs 1-4 Rocket 3.2 02:46:17 10° NNE 02:50:36 40° ENE 02:50:36 40° ENE
Cosmos 2297 Rocket 3.8 02:52:42 16° NW 02:56:30 31° NNE 03:01:32 10° E
CZ-2D R/B 3.0 02:54:42 10° NNE 02:59:19 46° ENE 02:59:19 46° ENE
SL-16 R/B 3.4 03:04:48 39° NW 03:04:48 39° NW 03:08:45 10° NNW
Cosmos 2297 4.2 03:07:12 58° ENE 03:07:12 58° ENE 03:11:52 10° NE
Cosmos 2034 Rocket 4.4 03:09:39 57° NNW 03:09:39 57° NNW 03:15:01 10° N
IRS-1D 4.3 03:04:57 10° NNE 03:09:03 48° ENE 03:09:03 48° ENE
Cosmos 2026 Rocket 4.4 03:05:29 10° NNW 03:10:07 52° NNW 03:10:07 52° NNW
Cosmos 2219 3.8 03:09:41 10° NW 03:15:21 56° NE 03:20:56 10° ESE
ADEOS Rocket 3.8 03:10:05 10° NNE 03:16:51 50° E 03:18:21 42° SE
Cosmos 2227 Rocket 3.6 03:12:08 10° NW 03:17:23 37° NNE 03:22:39 10° E
Okean O Rocket 4.0 03:15:03 10° NE 03:17:58 17° E 03:19:20 15° ESE
Cosmos 1455 4.5 03:21:01 24° NE 03:21:01 24° NE 03:22:52 10° NNE
Cosmos 2278 Rocket 2.6 03:24:11 56° N 03:24:11 56° N 03:29:10 10° NE
Cosmos 2369 Rocket 3.6 03:23:10 28° SE 03:24:05 29° ESE 03:28:53 10° NE
Timation 1 Rocket 4.3 03:34:31 80° N 03:34:31 80° N 03:40:23 10° NE
NOSS 2-1 (E) 4.3 03:36:01 62° N 03:36:01 62° N 03:42:01 10° ENE
ARIANE 5 R/B 2.7 03:34:40 10° NNE 03:38:56 64° NNE 03:38:56 64° NNE
ADEOS 3.7 03:38:07 10° NNE 03:42:49 71° N 03:42:49 71° N
NOSS 3-3 (A) 4.4 03:43:42 45° WNW 03:45:58 69° N 03:53:30 10° E
NOSS 3-3 (C) 4.4 03:43:49 45° WNW 03:46:04 69° N 03:53:35 10° E
Cosmos 2266 Rocket 3.9 03:40:01 10° NNW 03:46:15 83° ENE 03:47:48 53° SSE
Cosmos 921 Rocket 4.3 03:47:54 34° E 03:47:54 34° E 03:51:39 10° NE
COBE Rocket 4.3 03:44:29 10° NNE 03:49:08 54° E 03:49:16 54° ESE
NPP 4.2 03:44:12 10° NNE 03:48:38 46° NNW 03:48:38 46° NNW
Cosmos 1908 Rocket 4.3 03:46:00 10° N 03:50:25 53° ENE 03:50:37 52° E
ATLAS 5 CENTAUR R/B 3.7 03:51:18 21° SE 03:52:22 22° ESE 03:56:24 10° ENE
Cosmos 1634 Rocket 3.9 03:57:01 66° WNW 03:57:06 66° WNW 04:03:17 10° N
Cosmos 1943 Rocket 3.8 03:56:39 19° SSE 03:59:22 28° ESE 04:04:03 10° NE
Cosmos 1242 Rocket 4.3 04:02:21 30° NNE 04:02:21 30° NNE 04:04:18 10° NNE
Cosmos 2279 Rocket 3.9 04:00:24 65° SSW 04:01:26 88° WNW 04:07:45 10° NNE
Meteor 2-10 4.2 04:02:14 62° NW 04:02:14 62° NW 04:07:15 10° NNE
Cosmos 2180 Rocket 4.4 04:00:50 56° S 04:02:18 83° E 04:08:38 10° NNE
Sich 1 Rocket 3.9 03:57:55 10° N 04:02:30 67° ENE 04:02:31 67° ENE
ADEOS II 3.5 04:00:23 10° NNE 04:05:12 34° E 04:09:35 12° SSE
Cosmos 1140 Rocket 3.4 04:01:13 10° NNW 04:06:29 84° NE 04:11:45 10° SE
Spot 4 Rocket 4.3 04:02:28 10° NNE 04:07:07 56° NW 04:07:07 56° NW
Cosmos 614 Rocket 4.0 04:03:18 10° NNW 04:08:25 73° NE 04:13:33 10° SE
CZ-4B R/B 4.5 04:03:56 10° NNE 04:09:09 39° E 04:14:01 12° SSE
CZ-2D R/B 3.8 04:05:28 10° NNE 04:09:08 65° NNE 04:09:08 65° NNE
Cosmos 2344 4.1 04:08:33 37° W 04:12:36 75° N 04:23:48 10° E
Lacrosse 5 rocket 3.6 04:20:01 14° SE 04:20:01 14° SE 04:20:36 10° SE
PSLV R/B 4.5 04:14:22 10° NNE 04:18:10 49° E 04:18:16 49° ESE
Cosmos 2084 Rocket 3.8 04:19:18 53° ENE 04:19:18 53° ENE 04:22:18 10° ENE
Cosmos 2082 4.4 04:14:14 10° NW 04:19:51 54° NE 04:25:24 10° ESE
Cosmos 1844 Rocket 3.9 04:19:08 27° NW 04:20:46 31° NNW 04:25:48 10° NE
Cosmos 1933 4.3 04:20:00 39° SE 04:20:53 46° E 04:24:51 10° NNE
Lacrosse 4 Rocket 2.1 04:27:03 42° NNW 04:27:03 42° NNW 04:30:38 10° NE
Meteor 1-27 4.5 04:26:35 51° W 04:27:03 52° WNW 04:32:48 10° NNE
Cosmos 1707 Rocket 4.1 04:29:00 46° NNW 04:29:00 46° NNW 04:32:32 10° N
Okean 2 Rocket 3.7 04:23:51 10° N 04:28:12 55° ENE 04:32:32 10° SSE
Iridium 4 Rocket 3.8 04:24:29 10° N 04:30:08 60° W 04:30:57 54° WSW
UNKNOWN OBJECT B 3.6 04:26:36 10° N 04:29:26 41° NNW 04:29:26 41° NNW
Resurs 1-4 Rocket 2.3 04:26:14 10° NNE 04:31:23 50° WNW 04:31:41 50° WNW
Cosmos 1862 Rocket 3.7 04:30:38 53° SSE 04:31:28 69° E 04:35:48 10° NNE
Cosmos 1244 Rocket 4.4 04:27:38 10° NNW 04:33:58 88° ENE 04:40:12 10° SSE
Cosmos 2263 Rocket 3.8 04:32:18 14° NW 04:36:09 28° N 04:41:00 10° ENE
Cosmos 1869 3.6 04:36:57 57° NNW 04:36:57 57° NNW 04:40:22 10° N
Lacrosse 5 3.5 04:34:59 20° S 04:36:45 24° SE 04:40:48 10° E
CZ-2C R/B 3.8 04:39:50 60° W 04:39:50 60° W 04:44:16 10° NNW
CZ-4B R/B 3.2 04:35:55 10° NNE 04:40:01 62° ESE 04:41:03 44° SSE
CZ-2D R/B 2.5 04:34:57 10° NNE 04:40:05 46° WNW 04:40:39 45° WNW
Cosmos 2297 Rocket 2.6 04:35:56 10° NW 04:41:35 62° NE 04:47:11 10° ESE
Cosmos 1867 3.8 04:41:45 42° SSW 04:43:31 65° SE 04:48:57 10° ENE
Meteor 1-14 Rocket 4.2 04:38:32 10° NNW 04:44:27 86° WSW 04:50:12 10° SSE
Cosmos 1850 Rocket 3.9 04:39:08 10° NNW 04:44:31 81° WSW 04:49:51 10° SSE
SL-16 R/B 4.3 04:49:53 15° NW 04:49:53 15° NW 04:51:36 10° NW
IRS-1D 4.1 04:44:28 10° N 04:49:12 37° WNW 04:49:32 37° WNW
Cosmos 2297 4.4 04:49:07 34° WNW 04:50:45 42° NNW 04:56:14 10° NE
Cosmos 1624 Rocket 4.2 04:48:51 32° SSW 04:51:24 73° ESE 04:56:44 10° NE
Cosmos 2056 Rocket 3.7 04:50:49 30° SSW 04:53:22 71° ESE 04:58:38 10° NE
IRS-1C Rocket 4.2 04:49:01 10° NNE 04:54:20 74° ESE 04:58:18 18° S
PAYLOAD B 4.4 04:49:10 10° NNE 04:54:45 75° ESE 04:59:20 16° SSW
Cosmos 1455 3.5 04:56:01 28° NW 04:56:01 28° NW 04:58:34 10° N
Okean O Rocket 1.5 04:50:38 10° NNE 04:55:02 85° ESE 04:56:48 36° SSW
Meteor 1-31 Rocket 4.5 04:51:47 10° NNE 04:55:22 33° E 04:58:55 10° SSE
Cosmos 1633 4.4 04:55:04 10° N 04:58:26 33° ENE 05:01:44 10° SE
CZ-4B DEB 4.4 04:53:13 10° NNE 04:58:47 74° ESE 05:03:51 13° SSW
Cosmos 972 Rocket 4.2 04:56:28 29° SSW 04:59:24 83° ESE 05:05:24 10° NNE
Cosmos 2219 3.3 04:54:04 10° NW 04:59:34 50° WSW 05:05:00 10° S
Cosmos 2242 Rocket 3.8 05:01:28 48° W 05:01:55 50° WNW 05:06:21 10° N
Cosmos 2227 Rocket 2.2 04:56:25 10° NW 05:02:09 85° NE 05:07:52 10° SE
ADEOS Rocket 3.4 04:55:42 10° NNE 05:02:31 54° WNW 05:05:19 32° WSW
Meteor 1-25 Rocket 4.2 04:57:21 10° NNW 05:03:12 85° WSW 05:09:04 10° SSE
CZ-4C R/B 4.0 04:58:48 10° S 05:03:33 29° ESE 05:08:51 10° ENE
NOSS 2-1 (D) 4.4 05:02:55 28° WNW 05:05:45 73° NNE 05:12:30 10° ESE
NOSS 2-1 (C) 4.4 05:03:19 28° WNW 05:06:10 73° NNE 05:12:53 10° ESE
Cosmos 2369 Rocket 2.1 05:04:58 33° SW 05:07:38 84° NW 05:13:20 10° NE
Cosmos 2278 Rocket 3.4 05:06:01 22° WNW 05:08:38 31° NNW 05:13:42 10° NE
COSMO-SKYMED 1 2.8 05:05:04 10° SSE 05:09:24 70° ENE 05:13:45 10° NNW
ERS-2 2.6 05:07:03 10° NNE 05:10:45 61° ESE 05:13:30 17° S
SL-24 R/B - RUBIN 2 4.3 05:07:05 19° WNW 05:11:51 69° SW 05:17:40 10° SE
ARIANE 5 R/B 3.5 05:14:16 10° N 05:18:25 27° NW 05:19:17 25° WNW
Okean 1-7 3.5 05:16:12 10° S 05:20:24 61° E 05:24:38 10° NNE
Cosmos 1371 Rocket 3.9 05:19:33 30° SW 05:22:08 69° NW 05:27:21 10° NNE
Cosmos 2221 Rocket 3.8 05:18:16 10° S 05:22:49 73° E 05:27:23 10° NNE
Meteor 2-10 Rocket 3.6 05:17:59 10° S 05:23:01 78° ESE 05:28:15 10° NNE
PSLV R/B 3.4 05:19:38 10° NNE 05:23:52 78° WNW 05:26:46 20° SSW
Cosmos 921 Rocket 3.2 05:24:42 36° WSW 05:25:59 49° NW 05:30:09 10° NNE
NOSS 2-1 (E) 4.4 05:23:22 21° WNW 05:27:00 79° NNE 05:34:04 10° ESE
IRAS Rocket 4.1 05:22:00 10° NNE 05:27:31 75° WNW 05:32:16 14° SSW
Cosmos 1908 Rocket 4.4 05:24:12 10° NNW 05:27:43 30° WNW 05:27:43 30° WNW
Meteor 1-11 Rocket 4.1 05:24:26 10° NNW 05:30:28 72° ENE 05:36:23 10° SSE
MOS 1 Rocket 3.8 05:27:17 10° N 05:32:36 52° WNW 05:36:05 21° SW
Cosmos 1782 Rocket 4.0 05:30:02 10° NNW 05:34:12 39° W 05:38:21 10° SSW
Cosmos 1452 Rocket 3.8 05:29:12 10° SSW 05:34:27 69° ESE 05:39:45 10° NE
Thor Agena Rocket 3.7 05:30:43 10° S 05:35:45 50° WSW 05:40:45 10° NNW
Cosmos 1242 Rocket 4.2 05:36:31 19° NW 05:36:31 19° NW 05:38:52 10° N
ATLAS 5 CENTAUR R/B 2.2 05:32:52 21° SW 05:36:14 68° SE 05:41:45 10° ENE
Cosmos 1741 Rocket 4.3 05:32:05 10° NW 05:36:59 41° WSW 05:41:52 10° S
NOSS 3-3 (A) 4.3 05:31:08 14° WNW 05:37:20 82° SSW 05:45:04 10° SE
NOSS 3-3 (C) 4.3 05:31:14 14° WNW 05:37:26 82° SSW 05:45:09 10° SE
Cosmos 1709 Rocket 4.1 05:32:00 10° NNW 05:38:10 76° ENE 05:44:17 10° SSE
SKYMED 3 4.5 05:35:06 10° S 05:39:26 72° WSW 05:43:49 10° NNW
Cosmos 1300 Rocket 3.9 05:35:11 10° N 05:39:39 69° ENE 05:44:04 10° SSE
Cosmos 1943 Rocket 2.1 05:38:12 17° SW 05:42:36 86° NW 05:48:15 10° NE
Meteor 1-28 Rocket 3.1 05:41:28 10° SSE 05:45:13 82° WSW 05:49:02 10° NNW
ADEOS II 2.1 05:40:04 10° NNE 05:45:17 61° WNW 05:50:28 10° SW
Cosmos 1140 Rocket 4.4 05:43:34 10° NW 05:47:48 25° W 05:52:01 10° SSW
Cosmos 1536 3.5 05:45:42 10° N 05:49:39 56° ENE 05:53:37 10° SSE
CZ-4B R/B 3.3 05:44:31 10° NNE 05:50:01 59° WNW 05:55:33 10° SW
Okean-O 2.6 05:50:40 10° NNE 05:55:09 84° WNW 05:59:36 10° SSW
Lacrosse 5 rocket 2.9 05:55:45 15° SW 05:55:45 15° SW 05:57:50 10° S
Cosmos 1386 Rocket 4.4 05:50:34 10° NNW 05:56:32 63° W 06:02:32 10° S
Cosmos 1745 Rocket 4.1 05:50:49 10° NNW 05:56:47 52° W 06:02:41 10° SSW
SKYMED 2 3.7 05:53:17 10° S 05:57:33 52° W 06:01:49 10° NNW
Cosmos 1933 4.2 05:55:53 22° WSW 05:57:39 31° WNW 06:01:21 10° N
Cosmos 2084 Rocket 3.5 05:55:51 22° WNW 05:58:09 57° N 06:01:54 10° ENE
CZ-4B R/B 3.8 05:54:31 10° NNE 05:58:27 79° WNW 06:02:32 10° SSW
Cosmos 2263 4.3 05:56:15 17° WSW 06:00:36 61° NW 06:06:14 10° NE
Cosmos 2082 3.8 05:58:32 10° NW 06:04:03 52° WSW 06:09:32 10° SSE
Cosmos 1602 3.7 06:00:55 10° NNW 06:04:54 71° W 06:08:51 10° S
Okean 2 Rocket 3.9 06:02:19 10° NNW 06:06:04 28° W 06:09:49 10° SSW
Cosmos 1844 Rocket 4.2 06:01:20 10° NW 06:06:14 29° N 06:11:06 10° ENE
Lacrosse 4 Rocket 2.8 06:03:23 13° WNW 06:06:16 27° N 06:09:48 10° ENE
Cosmos 1417 Rocket 4.5 06:01:46 10° SSW 06:07:52 64° WNW 06:14:00 10° N
Resurs 1-4 Rocket 3.8 06:06:49 10° N 06:10:14 18° NW 06:12:47 13° WNW
Cosmos 1606 2.9 06:07:20 10° S 06:11:15 79° E 06:15:12 10° NNE
CZ-4B R/B 4.0 06:11:29 10° N 06:14:55 26° NW 06:17:14 15° WSW
USA 81 4.0 06:10:51 10° SSW 06:16:08 79° W 06:21:29 10° N
Meteor 1-27 Rocket 4.5 06:12:00 10° S 06:17:45 61° E 06:23:37 10° NNE
Cosmos 1703 Rocket 4.1 06:14:34 10° SW 06:18:40 38° WNW 06:22:49 10° N
Lacrosse 5 2.5 06:14:12 11° SW 06:18:59 51° SSE 06:23:54 10° E
CZ-2D R/B 3.8 06:15:48 10° N 06:19:06 17° NW 06:21:59 11° WNW
Okean 1 Rocket 3.0 06:15:11 10° NNW 06:19:39 74° WSW 06:24:02 10° S
Meteor PRIRODA 4.2 06:17:14 10° N 06:20:40 37° WNW 06:24:05 10° SW
Cosmos 1782 2.7 06:17:22 10° SSW 06:21:21 72° WNW 06:25:23 10° NNE
Cosmos 2263 Rocket 3.2 06:15:57 10° NW 06:21:24 45° NNE 06:26:48 10° ESE
Cosmos 2297 Rocket 2.5 06:20:13 10° NW 06:25:33 44° WSW 06:30:52 10° S
Cosmos 2151 Rocket 4.2 06:21:57 10° NNW 06:26:02 34° W 06:30:05 10° SSW
Cosmos 1867 3.8 06:22:25 13° W 06:27:17 61° NNW 06:32:45 10° ENE
Cosmos 2344 4.4 06:18:52 10° WNW 06:28:04 87° NNE 06:40:41 10° ESE
Meteor 1-31 Rocket 3.2 06:26:15 10° N 06:29:58 41° WNW 06:33:38 10° SW
Okean O Rocket 2.9 06:27:34 10° N 06:31:00 23° NW 06:34:17 11° WSW
Cosmos 1633 3.1 06:30:06 10° NNW 06:33:28 35° W 06:36:47 10° SSW
Ariane Rocket 3.5 06:28:37 10° NNE 06:33:44 67° ESE 06:38:48 10° S
Cosmos 2056 Rocket 4.2 06:31:10 10° WSW 06:35:57 37° NW 06:40:53 10° NNE
Helios 1B rocket 3.0 06:32:14 10° SSE 06:36:20 64° ENE 06:40:28 10° NNW
Cosmos 1354 Rocket 4.0 06:35:00 10° NW 06:40:21 73° WSW 06:45:40 10° SSE
Cosmos 1656 Rocket 3.7 06:36:59 10° SW 06:42:41 71° NW 06:48:22 10° NE
Cosmos 1500 4.5 06:40:24 10° N 06:44:03 45° ENE 06:47:41 10° SE
ERS-2 3.4 06:41:12 10° N 06:44:15 24° NW 06:47:17 10° WSW
Cosmos 2227 Rocket 3.0 06:40:55 10° NW 06:45:43 29° WSW 06:50:30 10° SSW
COSMO-SKYMED 1 3.7 06:42:30 10° SW 06:46:01 23° W 06:49:33 10° NW
NOAA 6 4.1 06:41:40 10° NNE 06:46:46 59° WNW 06:51:50 10° SW
Meteor 2-6 Rocket 4.1 06:41:37 10° SSW 06:47:00 72° WNW 06:52:32 10° NNE
Cosmos 1544 Rocket 3.9 06:42:54 10° N 06:47:16 70° ENE 06:51:39 10° SSE
Cosmos 1420 Rocket 4.0 06:43:50 10° SW 06:48:59 64° NW 06:54:12 10° NNE
CZ-4C R/B 2.6 06:45:35 10° SW 06:51:17 78° SSE 06:57:56 10° ENE
Cosmos 2369 Rocket 3.0 06:47:08 10° W 06:52:23 36° NNW 06:57:36 10° NE
Cosmos 2278 Rocket 3.6 06:49:21 10° NW 06:54:18 29° N 06:59:15 10° ENE
IDEFIX/ARIANE 42P 3.2 06:50:18 10° NNE 06:55:32 63° ESE 07:00:43 10° S
USA 234 4.1 06:50:18 10° E 06:56:39 50° SSE 07:02:59 10° SW
S3M 4.4 06:51:19 10° SW 06:57:18 43° WNW 07:03:14 10° N
Cosmos 220 Rocket 4.0 06:53:12 10° NNW 06:57:29 88° SW 07:01:44 10° SSE
Okean 1-7 4.0 06:54:44 10° WSW 06:58:22 26° WNW 07:02:00 10° N
Cosmos 1553 Rocket 4.5 06:57:25 10° SW 07:03:18 40° WNW 07:09:18 10° N
